Tracking 35331 objects as of 14-Sep-2026
HD Live streaming from Space Station
objects crossing your sky now

STARLINK-37239

Track STARLINK-37239 now!
10-day predictions
STARLINK-37239 is classified as:


NORAD ID: 100018
Int'l Code: 2026-160T
Launch date: July 14, 2026
Source: United States (US)
Launch site: AIR FORCE WESTERN TEST RANGE (AFWTR)
Your satellite tracking list
Your tracking list is empty




NASA's NSSDC Master Catalog

Two Line Element Set (TLE):
1 A0018U 26160T   26257.52822243  .00243131  00000-0  14134-2 0  9993
2 A0018  70.0019 211.7324 0003346 305.7686  54.3202 15.77641873 11051
Source of the keplerian elements: AFSPC